Location: Roanoke
(37.2710°N, 79.9420°W)
Time: 23:37:21
(UTC-05:00)

S-56A Canister/Altair - Pass Details

Date: 19 November 2019
Orbit: 633 x 2499 km, 38.9° (Epoch: 07 December)

Event Time Altitude Azimuth Distance (km) Brightness Sun altitude
Rises 14:05:36 0° 198° (SSW) 5,994 13.3 26.5°
Reaches altitude 10° 14:11:03 10° 185° (S) 4,771 12.8 25.9°
Maximum altitude 14:19:50 22° 142° (SE) 3,404 11.2 24.9°
Drops below altitude 10° 14:26:50 10° 97° (E) 3,735 10.8 24.1°
Sets 14:30:23 0° 83° (E) 4,416 11.0 23.7°
